Location: Briis
(48.6240°N, 2.1211°E)
Time: 00:44:13
(UTC+00:00)

Cosmos 468 Rocket - Pass Details

Date: 25 September 2020
Orbit: 745 x 779 km, 74.0° (Epoch: 23 October)

Event Time Altitude Azimuth Distance (km) Brightness Sun altitude
Exits shadow 03:59:52 30° 241° (WSW) 1,349 4.7 -17.5°
Maximum altitude 04:02:06 50° 299° (WNW) 984 4.3 -17.2°
Drops below altitude 10° 04:07:13 10° 15° (NNE) 2,315 6.9 -16.4°
Sets 04:09:40 0° 20° (NNE) 3,240 7.8 -16.0°
